[[{"header":{"parameterUnit":"m.s-1","parameterCategory":1,"la1":30.2991,"la2":30.254,"lo1":-89.0895,"lo2":-89.0444,"dy":0.0017,"dx":0.0017,"nx":28,"ny":28,"refTime":"2025-08-17T09:00:00:Z","depth":0,"parameterNumber":2,"parameterNumberName":"U-component_of_WINDS"},"data":[0,0,0,0,0,0,0,0,0,0,0,0,0,0,0,0,0,0,0,0,0,0,0,0,0,0,0,0,0,0,0,0,0,0,0,0,0,0,0,0,0,0,0,0,0,0,0,0,0,0,0,0,0,0,0,0,0,0,1.0797,1.0797,0,1.0714,1.0713,1.0712,1.065,1.0649,1.0649,1.0648,1.0559,1.0558,1.0556,0,0,0,0,0,0,0,0,0,0,0,0,0,1.09,1.0898,1.0798,1.0796,1.0795,1.0714,1.0713,1.0712,1.065,1.0649,1.0648,1.0648,1.056,1.0558,1.0556,0,0,0,0,0,0,0,0,0,0,0,0,0,1.084,1.0898,1.0798,1.0755,1.075,1.0715,1.0713,1.0712,1.065,1.0649,1.0648,1.0647,1.0561,1.0558,1.0555,1.0555,0,0,1.0547,1.0546,0,0,0,0,0,0,0,0,1.0843,1.0836,1.0762,1.0758,1.0752,1.0692,1.0717,1.0659,1.065,1.0688,1.0648,1.0647,1.0604,1.0598,1.0584,1.0551,1.0547,1.0547,1.0545,1.0544,1.0543,0,0,0,0,0,0,0,1.0848,1.0839,1.0764,1.0761,1.0755,1.0739,1.0729,1.0706,1.0651,1.0684,1.068,1.0671,1.0601,1.0586,1.0581,1.0546,1.0547,1.0544,1.0543,1.0542,1.0509,1.051,0,0,0,0,0,0,1.0859,1.0843,1.0767,1.0762,1.0797,1.0738,1.0727,1.0712,1.0652,1.0642,1.0672,1.0668,1.0592,1.0584,1.0578,1.0573,1.0544,1.0541,1.054,1.0509,1.051,1.051,0,0,0,0,0,0,1.0861,1.0853,1.077,1.0801,1.079,1.0737,1.072,1.0711,1.0696,1.0642,1.0632,1.0667,1.0591,1.0582,1.0562,1.0569,1.054,1.0538,1.0508,1.0509,1.051,1.0565,0,0,0,0,0,0,1.0864,1.0854,1.0854,1.0802,1.0788,1.0756,1.0721,1.071,1.0692,1.0687,1.0635,1.0625,1.0589,1.0566,1.0559,1.0565,1.0535,1.0507,1.0508,1.051,1.0562,1.0568,1.0573,0,0,0,0,0,1.0868,1.0871,1.0854,1.0845,1.0787,1.0757,1.0749,1.0708,1.0693,1.0692,1.0657,1.0627,1.057,1.0565,1.0556,1.0561,1.0506,1.0508,1.051,1.056,1.0566,1.0572,0,0,0,0,0,0,1.0924,1.0864,1.0844,1.083,1.08,1.0747,1.0744,1.0717,1.0689,1.0685,1.0635,1.0624,1.0609,1.0583,1.0578,1.0558,1.0534,1.0534,1.0575,1.0581,1.0587,1.0592,1.0533,0,0,0,0,0,1.0935,1.0917,1.0865,1.0858,1.0844,1.0797,1.0782,1.0754,1.0719,1.0706,1.0669,1.0636,1.0611,1.0595,1.0569,1.0559,1.0546,1.0558,1.0564,1.0568,1.0568,1.0561,1.0566,1.0516,1.0516,1.0516,0,0,1.0957,1.0922,1.0913,1.0868,1.0841,1.0822,1.0786,1.0767,1.0753,1.0702,1.0681,1.0654,1.0614,1.0599,1.059,1.0577,1.058,1.0571,1.0575,1.0572,1.0563,1.0568,1.0572,1.0518,1.0517,1.0517,0,0,1.0987,1.0959,1.095,1.0924,1.0884,1.0853,1.0852,1.0803,1.0783,1.0762,1.0724,1.0705,1.0663,1.0636,1.0616,1.0639,1.061,1.0632,1.0658,1.0652,1.0656,1.0659,1.0666,1.0669,1.0632,1.0633,1.0633,0,1.1018,1.099,1.0949,1.0933,1.0914,1.087,1.086,1.0837,1.079,1.0778,1.0764,1.071,1.068,1.0658,1.0664,1.065,1.0645,1.0636,1.0659,1.0662,1.0664,1.067,1.0673,1.0635,1.0635,1.0635,1.0635,0,1.103,1.1011,1.1009,1.0966,1.0947,1.0935,1.0892,1.0878,1.0852,1.0822,1.0801,1.0764,1.0729,1.0723,1.0696,1.0697,1.069,1.0668,1.0643,1.0672,1.0677,1.0679,1.0639,1.0638,1.0638,1.0637,0,0,1.109,1.1027,1.1027,1.1007,1.0961,1.0944,1.093,1.0898,1.0886,1.0856,1.0842,1.0808,1.0788,1.0767,1.0737,1.0732,1.0751,1.0711,1.0709,1.0719,1.0749,1.0765,1.0768,1.0733,1.0733,1.0734,1.0752,0,1.1112,1.1084,1.1048,1.1033,1.1014,1.0973,1.096,1.093,1.0903,1.0883,1.0852,1.0829,1.0805,1.0791,1.0784,1.0751,1.0757,1.0749,1.0718,1.0718,1.0728,1.0771,1.0787,1.0806,1.0754,1.0754,1.0755,0,1.1132,1.1106,1.1089,1.1045,1.1036,1.1025,1.0993,1.0975,1.094,1.0921,1.0898,1.0867,1.0849,1.0828,1.0803,1.0798,1.0784,1.0766,1.0766,1.0759,1.0736,1.0764,1.0811,1.0814,1.0757,1.0757,1.0757,0,1.1177,1.1137,1.1122,1.1106,1.1055,1.1048,1.1026,1.0991,1.0974,1.0946,1.0935,1.0905,1.0888,1.0865,1.0827,1.0815,1.0805,1.0781,1.0788,1.0789,1.0785,1.0786,1.0829,1.0779,1.0779,1.0779,1.0779,0,1.1203,1.1194,1.1141,1.1131,1.112,1.1079,1.1069,1.1043,1.1012,1.0996,1.0959,1.0945,1.0896,1.0876,1.0846,1.0829,1.0822,1.0805,1.0797,1.0807,1.0809,1.0796,1.0793,1.078,1.078,1.078,1.078,0,1.125,1.1214,1.1194,1.1148,1.1136,1.113,1.109,1.1079,1.1051,1.1031,1.1024,1.0979,1.0954,1.0914,1.0877,1.0857,1.0844,1.0832,1.0856,1.0851,1.0859,1.0858,1.0893,1.0896,1.0847,1.0847,1.0848,0,1.1268,1.126,1.1214,1.1202,1.1182,1.1162,1.1145,1.1105,1.1089,1.105,1.1043,1.1015,1.0991,1.0952,1.0915,1.0887,1.0872,1.0887,1.0867,1.0878,1.0871,1.0871,1.087,1.089,1.0891,1.0892,1.0892,0,1.1304,1.1288,1.1265,1.1238,1.1219,1.1195,1.1169,1.116,1.1114,1.1098,1.1073,1.1054,1.1017,1.0989,1.0956,1.0932,1.0904,1.0899,1.0899,1.0908,1.0922,1.0914,1.0867,1.0898,1.0897,1.0897,1.0897,1.0896,1.1336,1.1327,1.1294,1.1271,1.1247,1.1224,1.1212,1.1183,1.1161,1.1128,1.1106,1.1082,1.1048,1.1001,1.0979,1.0959,1.0947,1.0947,1.0946,1.0946,1.095,1.0928,1.0953,1.0953,1.0953,1.0952,1.0952,0,1.1369,1.1346,1.1326,1.1291,1.1273,1.1251,1.1221,1.1207,1.1187,1.1158,1.1135,1.1106,1.108,1.1042,1.1013,1.1004,1.0991,1.0998,1.0997,1.0992,1.0963,1.0966,1.1009,1.1009,1.1009,1.1009,1.1009,1.1009,1.1384,1.1368,1.1348,1.132,1.1297,1.1274,1.1259,1.1237,1.1214,1.1184,1.1162,1.1139,1.1106,1.1075,1.105,1.1039,1.103,1.104,1.1026,1.0999,1.0994,1.0989,1.0991,1.1039,1.1039,1.1056,1.1056,1.1056]},{"header":{"parameterUnit":"m.s-1","parameterCategory":1,"la1":30.2991,"la2":30.254,"lo1":-89.0895,"lo2":-89.0444,"dy":0.0017,"dx":0.0017,"nx":28,"ny":28,"refTime":"2025-08-17T09:00:00:Z","depth":0,"parameterNumber":3,"parameterNumberName":"V-component_of_WINDS"},"data":[0,0,0,0,0,0,0,0,0,0,0,0,0,0,0,0,0,0,0,0,0,0,0,0,0,0,0,0,0,0,0,0,0,0,0,0,0,0,0,0,0,0,0,0,0,0,0,0,0,0,0,0,0,0,0,0,0,0,-0.3534,-0.3535,0,-0.3592,-0.3593,-0.3594,-0.3643,-0.3643,-0.3644,-0.3644,-0.3706,-0.3708,-0.3709,0,0,0,0,0,0,0,0,0,0,0,0,0,-0.3469,-0.347,-0.3534,-0.3535,-0.3536,-0.3592,-0.3593,-0.3594,-0.3643,-0.3643,-0.3644,-0.3645,-0.3706,-0.3707,-0.3709,0,0,0,0,0,0,0,0,0,0,0,0,0,-0.3509,-0.347,-0.3534,-0.3567,-0.357,-0.3592,-0.3593,-0.3594,-0.3643,-0.3643,-0.3644,-0.3645,-0.3706,-0.3707,-0.3709,-0.3704,0,0,-0.3714,-0.3715,0,0,0,0,0,0,0,0,-0.3507,-0.3512,-0.3561,-0.3565,-0.3569,-0.3611,-0.3593,-0.3631,-0.3642,-0.3615,-0.3644,-0.3645,-0.3674,-0.3679,-0.3688,-0.3706,-0.3709,-0.3714,-0.3715,-0.3716,-0.3717,0,0,0,0,0,0,0,-0.3504,-0.3509,-0.3557,-0.3562,-0.3567,-0.358,-0.3586,-0.36,-0.364,-0.3618,-0.3621,-0.3627,-0.3676,-0.3686,-0.369,-0.371,-0.3714,-0.3716,-0.3717,-0.3718,-0.3727,-0.3727,0,0,0,0,0,0,-0.3496,-0.3507,-0.3556,-0.3559,-0.3539,-0.358,-0.3588,-0.3597,-0.364,-0.3647,-0.3627,-0.363,-0.3683,-0.3688,-0.3692,-0.3688,-0.3716,-0.3718,-0.3719,-0.3728,-0.3727,-0.3726,0,0,0,0,0,0,-0.3494,-0.35,-0.3553,-0.3534,-0.3542,-0.358,-0.359,-0.3597,-0.3607,-0.3646,-0.3654,-0.3629,-0.3684,-0.369,-0.37,-0.3691,-0.3719,-0.372,-0.3729,-0.3728,-0.3727,-0.368,0,0,0,0,0,0,-0.3492,-0.3499,-0.3496,-0.3533,-0.3542,-0.3559,-0.359,-0.3598,-0.361,-0.3614,-0.3651,-0.3657,-0.3685,-0.3697,-0.3702,-0.3694,-0.3722,-0.373,-0.3729,-0.3727,-0.3683,-0.3678,-0.3673,0,0,0,0,0,-0.349,-0.3482,-0.3496,-0.3502,-0.354,-0.3559,-0.3564,-0.3595,-0.3609,-0.3607,-0.3632,-0.3656,-0.3691,-0.3698,-0.3704,-0.3696,-0.3731,-0.3729,-0.3727,-0.3685,-0.3679,-0.3673,0,0,0,0,0,0,-0.3443,-0.3487,-0.3503,-0.3507,-0.3529,-0.3567,-0.3566,-0.3587,-0.3606,-0.3609,-0.3647,-0.3655,-0.3661,-0.368,-0.3687,-0.3693,-0.3714,-0.3714,-0.368,-0.3675,-0.367,-0.3665,-0.3723,0,0,0,0,0,-0.3433,-0.3444,-0.3482,-0.3481,-0.3491,-0.3526,-0.3536,-0.3557,-0.3582,-0.3591,-0.3618,-0.3641,-0.3657,-0.3667,-0.3685,-0.3686,-0.3695,-0.3684,-0.3679,-0.3675,-0.3674,-0.3676,-0.3671,-0.3721,-0.3721,-0.3721,0,0,-0.3413,-0.3438,-0.3443,-0.3473,-0.3492,-0.3503,-0.3534,-0.3544,-0.3552,-0.3593,-0.3604,-0.3624,-0.3653,-0.3659,-0.3663,-0.3675,-0.3662,-0.3673,-0.3669,-0.367,-0.3674,-0.3669,-0.3665,-0.372,-0.372,-0.372,0,0,-0.3381,-0.3402,-0.3403,-0.3422,-0.345,-0.3474,-0.3474,-0.3509,-0.3524,-0.3535,-0.3566,-0.3578,-0.3605,-0.3624,-0.3637,-0.3613,-0.3636,-0.3618,-0.3593,-0.3595,-0.3591,-0.3587,-0.3578,-0.3575,-0.3617,-0.3617,-0.3617,0,-0.3353,-0.3369,-0.3402,-0.3409,-0.3422,-0.3459,-0.3461,-0.3478,-0.3511,-0.3519,-0.3532,-0.3567,-0.3589,-0.3599,-0.3593,-0.3603,-0.3605,-0.3614,-0.3589,-0.3586,-0.3583,-0.3575,-0.3571,-0.3614,-0.3615,-0.3615,-0.3615,0,-0.3332,-0.3343,-0.3342,-0.3371,-0.3384,-0.3389,-0.3423,-0.3432,-0.3452,-0.3475,-0.3486,-0.3514,-0.3538,-0.3542,-0.3563,-0.3556,-0.3562,-0.3581,-0.3603,-0.3575,-0.3568,-0.3565,-0.3611,-0.3612,-0.3613,-0.3613,0,0,-0.3272,-0.332,-0.3319,-0.3332,-0.3367,-0.3376,-0.3384,-0.3406,-0.3412,-0.3434,-0.3441,-0.3464,-0.3482,-0.3497,-0.352,-0.3522,-0.35,-0.3541,-0.3542,-0.3532,-0.3494,-0.3479,-0.3475,-0.3516,-0.3516,-0.3515,-0.3491,0,-0.3246,-0.3259,-0.3289,-0.3293,-0.3304,-0.3339,-0.3346,-0.3368,-0.3389,-0.3402,-0.3427,-0.3442,-0.3464,-0.3473,-0.3476,-0.3502,-0.3493,-0.3505,-0.3523,-0.3524,-0.3514,-0.3471,-0.3455,-0.3431,-0.3489,-0.3489,-0.3488,0,-0.3216,-0.3234,-0.324,-0.3273,-0.3279,-0.3284,-0.3306,-0.3318,-0.3345,-0.336,-0.3377,-0.3403,-0.3413,-0.3434,-0.3449,-0.3456,-0.3465,-0.3479,-0.3479,-0.3481,-0.3503,-0.3471,-0.3424,-0.342,-0.3484,-0.3485,-0.3485,0,-0.3171,-0.3197,-0.3204,-0.3215,-0.3254,-0.3257,-0.3274,-0.3301,-0.3312,-0.3332,-0.334,-0.3362,-0.3373,-0.339,-0.3421,-0.3434,-0.3433,-0.3456,-0.3446,-0.3445,-0.3443,-0.3443,-0.3396,-0.3451,-0.3451,-0.3451,-0.3451,0,-0.3137,-0.3139,-0.3184,-0.3187,-0.3191,-0.3225,-0.3228,-0.3248,-0.3272,-0.3281,-0.3314,-0.3322,-0.3363,-0.3377,-0.3401,-0.341,-0.3415,-0.3428,-0.3435,-0.3425,-0.3423,-0.3431,-0.3433,-0.345,-0.345,-0.3451,-0.3451,0,-0.3087,-0.3117,-0.3126,-0.3163,-0.3172,-0.3172,-0.3204,-0.321,-0.3234,-0.3245,-0.3249,-0.3286,-0.3304,-0.3337,-0.3363,-0.338,-0.3383,-0.3395,-0.3373,-0.3377,-0.3365,-0.3365,-0.3321,-0.3317,-0.3374,-0.3374,-0.3373,0,-0.3063,-0.3065,-0.3101,-0.3109,-0.3124,-0.3137,-0.3148,-0.3183,-0.3194,-0.3224,-0.3226,-0.3246,-0.3263,-0.3289,-0.3319,-0.334,-0.3352,-0.3335,-0.3355,-0.3345,-0.3351,-0.335,-0.335,-0.333,-0.3329,-0.3328,-0.3328,0,-0.3017,-0.3032,-0.3046,-0.3066,-0.3079,-0.3096,-0.3116,-0.3121,-0.3161,-0.3171,-0.3189,-0.3202,-0.3229,-0.3248,-0.3273,-0.3292,-0.3316,-0.3321,-0.332,-0.3309,-0.3296,-0.3302,-0.336,-0.3322,-0.3323,-0.3323,-0.3323,-0.3323,-0.2978,-0.2982,-0.3008,-0.3023,-0.3041,-0.3059,-0.3066,-0.309,-0.3104,-0.3128,-0.3148,-0.3164,-0.3191,-0.3227,-0.3244,-0.3257,-0.3269,-0.3267,-0.3267,-0.3266,-0.3261,-0.3295,-0.3262,-0.3263,-0.3263,-0.3263,-0.3263,0,-0.2934,-0.2952,-0.2966,-0.2992,-0.3004,-0.3026,-0.3049,-0.3058,-0.307,-0.3093,-0.3109,-0.3129,-0.3148,-0.3179,-0.3201,-0.3206,-0.3217,-0.321,-0.321,-0.3213,-0.325,-0.3248,-0.32,-0.32,-0.32,-0.32,-0.32,-0.32,-0.2912,-0.2918,-0.2936,-0.2952,-0.2971,-0.2986,-0.2997,-0.3013,-0.3031,-0.3052,-0.3067,-0.3087,-0.3114,-0.3138,-0.3156,-0.3165,-0.3171,-0.316,-0.3172,-0.3205,-0.3211,-0.3217,-0.3215,-0.3161,-0.3161,-0.3135,-0.3134,-0.3134]}]]